Location: *
(53.9450°S, 136.6720°W)
Time: 02:32:49
(UTC+00:00)

Daily predictions for brighter satellites

Satellite Brightness Start Highest point End
(mag) Time Altitude Azimuth Time Altitude Azimuth Time Altitude Azimuth
Cosmos 2123 Rocket 4.0 01:51:19 10° S 01:57:36 70° ESE 02:03:49 10° NNE
Cosmos 2369 Rocket 2.5 01:53:24 10° SSW 01:58:53 47° SE 02:04:18 10° ENE
Okean-O 2.9 01:54:40 10° SSE 01:59:08 53° E 02:03:32 10° N
Cosmos 1818 3.9 01:56:21 10° NNW 02:01:37 55° NE 02:06:55 10° SE
BREEZE-M DEB (TANK) 3.6 01:56:35 10° W 02:02:27 42° NNW 02:04:58 10° ENE
BREEZE-M DEB (TANK) 3.6 02:00:50 10° NW 02:02:42 24° NNE 02:05:11 10° E
Cosmos 2151 3.0 01:58:46 10° S 02:03:10 72° ESE 02:07:33 10° NNE
Aureole 2 Rocket 4.1 02:01:02 10° WNW 02:03:28 24° SW 02:06:03 10° S
Cosmos 2333 Rocket 2.7 01:58:52 10° NW 02:04:35 64° SW 02:10:24 10° SSE
Meteor 1-31 Rocket 3.0 02:06:08 10° SSE 02:10:11 79° WSW 02:14:10 10° NNW
COSMO-SKYMED 1 2.7 02:06:22 10° NNE 02:10:47 86° WNW 02:15:15 10° SSW
IRAS Rocket 4.5 02:05:45 10° SSE 02:11:22 54° ENE 02:16:54 10° N
Cosmos 1898 Rocket 3.5 02:07:50 10° SSW 02:13:07 76° ESE 02:18:22 10° NNE
IDEFIX/ARIANE 42P 3.4 02:09:00 10° SSE 02:13:47 32° E 02:18:32 10° NNE
Cosmos 990 Rocket 4.1 02:10:45 10° SSW 02:15:55 56° ESE 02:21:01 10° NE
Cosmos 2058 3.0 02:12:03 10° S 02:16:22 86° E 02:20:40 10° NNE
Cosmos 1953 4.3 02:13:24 10° NW 02:17:01 29° WSW 02:20:42 10° S
Cosmos 1821 Rocket 4.0 02:12:20 10° N 02:18:29 87° E 02:24:45 10° SSE
Cosmos 1626 2.2 02:14:50 10° S 02:18:41 87° E 02:22:29 10° N
Radarsat Rocket 4.4 02:14:09 10° SSE 02:20:35 58° ENE 02:27:46 10° N
Molniya-1T 3.2 02:18:46 10° SW 02:21:01 29° SSE 02:22:46 12° E
CENTAUR R/B 2.9 02:16:07 10° SW 02:22:22 63° NW 02:27:59 10° NNE
Cosmos 1125 Rocket 4.4 02:17:57 10° SSW 02:22:41 30° SE 02:27:23 10° ENE
Cosmos 1400 Rocket 3.4 02:22:26 10° S 02:26:23 37° ESE 02:30:19 10° NE
SL-16 R/B 4.2 02:22:45 10° WSW 02:26:24 17° SSW 02:30:03 10° SSE
ATLAS 2AS CENTAUR R/B 3.0 02:22:25 10° WNW 02:28:20 49° SSW 02:34:09 10° SE
Feng Yun 1-1 Rocket 4.2 02:23:00 10° SSE 02:28:32 89° ENE 02:34:02 10° NNW
USA 229 DEB 4.3 02:23:05 10° WSW 02:29:54 42° SSE 02:35:58 12° E
Ariane Rocket 3.9 02:25:21 10° SSE 02:29:55 30° E 02:34:25 10° NNE
USA 229 4.3 02:23:09 10° WSW 02:29:59 42° SSE 02:36:04 12° E
CZ-2C R/B 2.9 02:27:05 10° SSE 02:31:20 34° E 02:35:34 10° NNE
Cosmos 1703 3.6 02:28:33 10° SSW 02:32:40 75° W 02:36:42 10° N
ADEOS II 3.9 02:28:28 10° S 02:32:59 29° WSW 02:37:29 10° WNW
RESURS DK-1 2.6 02:30:44 10° NNW 02:34:49 55° ENE 02:38:39 12° SE
Cosmos 2322 Rocket 4.2 02:31:43 10° SW 02:35:08 16° SSW 02:38:33 10° SSE
SL-16 R/B 2.2 02:29:29 10° NNW 02:35:12 82° ENE 02:41:00 10° SSE
NOSS 3-4 (A) 4.0 02:27:55 10° NW 02:35:45 79° NE 02:43:00 11° SE
NOSS 3-4 (C) 4.0 02:28:00 10° NW 02:35:50 78° NE 02:43:04 11° SE
Cosmos 371 Rocket 4.2 02:33:06 10° NNE 02:37:19 29° ENE 02:41:05 12° SE
Cosmos 1300 4.3 02:36:59 10° ENE 02:39:22 16° E 02:39:29 16° E
YAOGAN 1 4.1 02:39:11 15° ESE 02:40:13 16° E 02:43:00 10° NE
Geosat 4.4 02:35:50 10° SSE 02:40:54 66° SW 02:45:56 10° NW
Cosmos 1656 Rocket 4.4 02:36:44 10° SSW 02:41:45 33° SE 02:46:14 12° ENE
CRYOSAT 2 4.5 02:39:27 10° SSE 02:44:22 56° E 02:49:14 10° N
Cosmos 1633 Rocket 3.4 02:41:20 10° S 02:45:36 44° ESE 02:49:50 10° NE
Cosmos 1605 Rocket 4.0 02:39:24 10° N 02:45:42 78° E 02:51:58 10° SSE
Okean O Rocket 3.9 02:46:08 10° S 02:49:31 22° WSW 02:52:53 10° WNW
Cosmos 2098 Rocket 2.4 02:47:39 10° NNW 02:50:36 70° WSW 02:53:44 10° S
Cosmos 1937 Rocket 3.7 02:46:43 10° SSW 02:52:04 77° WNW 02:57:18 10° NNE
Cosmos 1484 Rocket 4.0 02:51:23 20° ESE 02:52:19 22° E 02:55:21 10° NE
Cosmos 1726 3.2 02:51:19 10° NNE 02:54:33 26° E 02:56:03 20° SE
Cosmos 1908 3.3 02:50:47 10° N 02:54:39 55° E 02:58:36 10° SSE
ERS-2 2.3 02:51:31 10° SSE 02:55:17 55° ENE 02:58:59 10° N
Cosmos 1666 Rocket 3.6 02:50:48 10° S 02:55:23 63° ESE 02:59:52 10° NNE
Sich 1 3.0 02:51:20 10° S 02:55:41 62° ESE 02:59:59 10° NNE
SMAP 3.8 02:51:27 10° SSE 02:55:42 32° E 02:59:55 10° NNE
PAYLOAD A 3.9 02:52:43 10° SSE 02:57:48 76° ENE 03:02:39 10° N
Lacrosse 5 2.3 02:52:52 10° NW 02:57:49 50° NE 03:01:00 21° ESE
Cosmos 1315 Rocket 3.2 02:54:07 10° S 02:57:57 40° ESE 03:01:44 10° NE
Cosmos 2100 Rocket 4.2 02:52:18 10° NNE 02:58:15 47° E 03:04:12 10° SSE
ERBS 2.4 02:56:17 10° NW 02:59:47 68° NNE 03:01:32 27° ESE
Cosmos 2150 Rocket 4.5 02:54:37 10° SSW 03:00:07 71° WNW 03:05:37 10° NNE
ATLAS CENTAUR R/B 1.7 02:55:59 10° SW 03:00:56 69° SE 03:05:34 11° NE
Cosmos 1805 Rocket 3.6 02:57:14 10° SSW 03:01:42 82° W 03:06:06 10° N
Cosmos 1933 Rocket 4.2 03:00:09 10° S 03:04:16 34° ESE 03:08:20 10° NE
CSL-04 Rocket 3.7 03:00:57 10° SSE 03:06:17 55° E 03:11:31 10° N
Cosmos 1570 Rocket 4.2 03:02:56 10° NNW 03:08:14 74° WSW 03:13:39 10° SSE
Meteor 2-1 Rocket 4.4 03:02:54 10° NNW 03:08:34 79° WSW 03:14:25 10° SSE
Cosmos 2221 2.5 03:05:28 10° N 03:09:48 90° W 03:14:12 10° SSE
Cosmos 1892 4.2 03:08:21 10° S 03:10:24 21° SE 03:10:24 21° SE
Cosmos 1814 Rocket 4.2 03:07:22 10° N 03:12:20 49° ENE 03:15:55 19° SE
Cosmos 1459 Rocket 4.0 03:09:27 10° N 03:15:28 57° E 03:21:38 10° SSE
Cosmos 2016 Rocket 4.3 03:12:13 10° NNE 03:18:05 45° E 03:24:07 10° SSE
Abrixas rocket 3.7 03:16:58 10° NW 03:19:45 25° NNE 03:20:28 23° NE
Cosmos 468 Rocket 4.0 03:15:35 10° NNW 03:20:55 77° ENE 03:25:30 15° SSE
NOSS 3-1 (C) 4.3 03:14:47 10° WSW 03:21:41 42° SSE 03:24:53 26° ESE
AQUARIUS 4.3 03:19:09 13° SSE 03:23:12 52° E 03:27:39 10° N
Cosmos 2228 Rocket 3.7 03:20:06 10° NNE 03:24:09 35° E 03:24:30 34° E
Cosmos 1328 Rocket 4.0 03:20:41 10° NNE 03:24:51 39° E 03:26:12 31° SE
Cosmos 1943 Rocket 2.2 03:19:08 10° SSW 03:24:55 86° WNW 03:30:38 10° NNE
USA 234 3.3 03:22:29 24° E 03:26:43 75° SSE 03:33:20 10° WSW
Cosmos 2360 Rocket 4.3 03:23:34 10° SW 03:27:00 16° SSW 03:30:26 10° SSE
IRS-1A Rocket 4.5 03:23:29 10° SSE 03:29:22 54° E 03:35:10 10° N
Cosmos 2219 Rocket 4.0 03:24:58 10° W 03:29:27 23° SSW 03:33:57 10° SSE
Cosmos 1980 Rocket 4.0 03:27:12 10° SSW 03:30:42 16° SSE 03:32:00 15° SSE
Cosmos 1242 Rocket 3.4 03:27:24 10° NNW 03:30:52 50° WSW 03:34:23 10° S
SPOT 3 Rocket 4.2 03:31:34 33° E 03:31:46 33° E 03:36:30 10° NNE
Cosmos 2237 Rocket 3.8 03:28:04 10° W 03:33:06 30° SW 03:38:03 10° SSE
CORIOLIS 4.3 03:28:14 10° SSE 03:33:38 54° E 03:39:00 10° N
Helios 1B rocket 3.3 03:35:21 32° SE 03:35:21 32° SE 03:38:15 10° S
CZ-4 R/B 1.5 03:32:01 21° SSE 03:34:49 63° ENE 03:39:03 10° N
Cosmos 332 Rocket 3.8 03:36:51 10° NNW 03:41:45 80° WSW 03:44:59 22° SSE
ASTEX 1 3.5 03:37:41 10° S 03:42:42 76° W 03:47:41 10° NNW
Cosmos 2369 Rocket 3.4 03:37:36 10° SW 03:42:56 43° WNW 03:48:12 10° N
Cosmos 1763 Rocket 3.4 03:38:31 10° NNW 03:43:46 70° ENE 03:46:34 29° SE
Cosmos 1470 Rocket 3.5 03:40:47 10° S 03:45:19 84° E 03:49:49 10° NNE
Cosmos 1818 4.3 03:40:08 10° WNW 03:45:22 46° SSW 03:48:19 24° SSE
Cosmos 2333 Rocket 4.1 03:45:29 10° W 03:50:01 23° SSW 03:54:09 12° SSE
Cosmos 1943 3.1 03:46:04 10° NNW 03:51:45 67° ENE 03:54:00 37° SE
IDEFIX/ARIANE 42P 3.4 03:48:26 10° S 03:53:38 51° WSW 03:58:46 10° NW
Cosmos 372 Rocket 4.0 03:53:45 10° SSW 03:59:08 83° WNW 04:03:11 17° NNE
Cosmos 1697 Rocket 4.1 03:55:19 10° SSW 03:59:27 22° SSE 03:59:27 22° SSE
MOS 1 4.3 03:59:37 27° SSE 04:02:44 61° ENE 04:08:25 10° N
Cosmos 1515 Rocket 4.0 04:00:38 10° N 04:04:06 50° NNE 04:04:06 50° NNE
Cosmos 1125 Rocket 3.9 03:59:52 10° SSW 04:05:15 66° WNW 04:10:33 10° NNE
Cosmos 2173 Rocket 4.2 04:00:24 10° NNW 04:06:46 72° WSW 04:13:07 10° S
Cosmos 1603 4.1 04:01:07 10° NW 04:06:46 63° SW 04:10:08 25° SSE
Cosmos 841 Rocket 3.3 04:03:06 10° NNW 04:08:18 84° ENE 04:09:44 50° SSE
Cosmos 1802 Rocket 4.2 04:02:12 10° NNW 04:08:42 79° W 04:15:16 10° S
Ariane Rocket 3.7 04:04:05 10° S 04:09:09 53° WSW 04:14:08 10° NW
MSX 4.3 04:03:50 10° S 04:09:34 61° WSW 04:15:17 10° NW
CZ-2C R/B 3.5 04:05:20 10° S 04:09:41 40° WSW 04:14:02 10° NW
Cosmos 304 Rocket 4.1 04:05:48 10° N 04:09:37 50° NNE 04:09:37 50° NNE
Cosmos 2285 Rocket 4.4 04:04:37 10° N 04:09:42 42° NE 04:09:42 42° NE
SL-16 R/B 4.1 04:09:39 10° SSW 04:12:58 15° S 04:13:26 15° SSE
BREEZE M DEB (TANK) 4.0 04:10:25 10° NW 04:12:18 26° N 04:12:18 26° N
RESURS DK-1 4.1 04:09:30 10° WNW 04:13:10 28° SW 04:14:35 23° S
Cosmos 1300 3.1 04:10:45 10° NNW 04:14:34 63° W 04:14:34 63° W
Tsikada Rocket 4.1 04:09:15 10° SSW 04:15:48 79° W 04:22:13 10° N
YAOGAN 1 2.6 04:16:21 66° SSW 04:16:53 78° WSW 04:21:16 10° NNW
Cosmos 371 Rocket 4.0 04:12:42 10° NW 04:17:32 53° WSW 04:19:47 29° S
SL-16 R/B 3.8 04:15:01 10° W 04:20:00 30° SW 04:23:32 17° SSE
ATLAS 2AS CENTAUR R/B 3.4 04:14:58 10° WSW 04:20:25 33° S 04:21:35 31° SSE
Cosmos 2322 Rocket 4.1 04:18:20 10° SSW 04:21:39 15° SSE 04:21:41 15° SSE
USA 229 DEB 3.6 04:14:37 10° SW 04:21:48 79° SE 04:23:26 56° ENE
USA 229 3.6 04:14:42 10° SW 04:21:54 78° SE 04:23:31 56° ENE
Aureole 3 4.3 04:15:18 10° S 04:21:56 62° ESE 04:21:56 62° ESE
Meteor 2-3 Rocket 4.0 04:18:45 10° SSW 04:24:39 73° W 04:30:28 10° N
Cosmos 1656 Rocket 3.8 04:20:16 10° SW 04:25:47 68° WNW 04:27:41 41° N
Cosmos 1484 Rocket 3.8 04:26:46 43° WSW 04:27:01 44° WSW 04:30:40 10° NW
NOSS 3-4 (A) 4.5 04:19:48 10° W 04:27:21 51° SSW 04:30:26 33° SSE
NOSS 3-4 (C) 4.5 04:19:52 10° W 04:27:26 51° SSW 04:30:31 33° SSE
NOSS 3-1 (A) 3.8 04:21:59 10° SW 04:28:56 51° SSE 04:29:23 50° SE
Cosmos 1726 3.8 04:26:13 10° NW 04:29:45 34° WSW 04:30:43 30° SW
USA 267 4.1 04:32:51 32° NNE 04:32:51 32° NNE 04:37:23 10° NNW
SMAP 4.2 04:29:24 14° S 04:33:11 44° WSW 04:37:39 10° NW
Meteor 2-10 4.2 04:28:33 10° NNW 04:33:45 67° WSW 04:35:45 37° S
ATLAS CENTAUR R/B 3.5 04:35:28 10° WSW 04:39:43 29° WNW 04:41:56 21° NNW
Lacrosse 5 2.1 04:35:35 10° W 04:40:12 66° WSW 04:40:12 66° WSW
Cosmos 1725 Rocket 4.4 04:50:49 10° NNW 04:57:01 61° WSW 05:03:23 10° S
CZ-4 R/B 3.9 05:08:04 18° SSW 05:09:29 21° WSW 05:12:44 10° WNW
USA 234 3.4 05:09:50 67° NNW 05:09:51 67° NNW 05:16:28 10° WSW
Cosmos 2360 Rocket 4.4 05:10:02 10° SSW 05:12:18 15° S 05:12:18 15° S
NOSS 3-1 (C) 3.8 05:06:29 10° SW 05:12:18 62° SSW 05:12:18 62° SSW
Cosmos 2219 Rocket 4.5 05:12:38 10° SW 05:15:36 14° S 05:15:48 14° S
Cosmos 1980 Rocket 4.0 05:11:21 10° SSW 05:13:46 22° S 05:13:46 22° S
Cosmos 2237 Rocket 4.4 05:15:47 10° SW 05:19:09 15° S 05:19:53 15° S
ATLAS 2AS CENTAUR R/B 4.3 06:06:37 10° SW 06:09:02 24° SW 06:09:02 24° SW
